TimeEDT,TemperatureF,Dew PointF,Humidity,Sea Level PressureIn,VisibilityMPH,Wind Direction,Wind SpeedMPH,Gust SpeedMPH,PrecipitationIn,Events,Conditions,WindDirDegrees,DateUTC
12:16 AM,44.1,42.3,93,30.28,10.0,East,3.5,-,N/A,,Clear,80,2013-05-05 04:16:00
12:35 AM,43.7,42.4,95,30.28,10.0,East,5.8,-,N/A,,Clear,90,2013-05-05 04:35:00
12:56 AM,43.9,42.4,95,30.28,10.0,Calm,Calm,-,N/A,,Clear,0,2013-05-05 04:56:00
1:16 AM,43.3,42.3,96,30.28,10.0,Calm,Calm,-,N/A,,Clear,0,2013-05-05 05:16:00
1:36 AM,43.5,42.6,97,30.27,10.0,NE,3.5,-,N/A,,Scattered Clouds,50,2013-05-05 05:36:00
1:56 AM,42.8,42.1,97,30.27,10.0,NE,3.5,-,N/A,,Scattered Clouds,50,2013-05-05 05:56:00
2:16 AM,41.7,41.7,100,30.27,10.0,NE,3.5,-,N/A,,Clear,50,2013-05-05 06:16:00
2:36 AM,41.5,41.5,100,30.26,10.0,NE,3.5,-,N/A,,Clear,50,2013-05-05 06:36:00
2:56 AM,41.4,41.4,100,30.26,10.0,NE,3.5,-,N/A,,Scattered Clouds,50,2013-05-05 06:56:00
3:16 AM,41.5,41.5,100,30.25,10.0,NE,3.5,-,N/A,,Scattered Clouds,50,2013-05-05 07:16:00
3:36 AM,41.5,41.5,100,30.25,10.0,Calm,Calm,-,N/A,,Clear,0,2013-05-05 07:36:00
3:56 AM,41.2,41.2,100,30.25,10.0,ENE,3.5,-,N/A,,Scattered Clouds,60,2013-05-05 07:56:00
4:16 AM,41.5,41.5,100,30.25,10.0,NE,4.6,-,N/A,,Scattered Clouds,50,2013-05-05 08:16:00
4:36 AM,41.9,41.9,100,30.24,10.0,NE,3.5,-,N/A,,Scattered Clouds,40,2013-05-05 08:36:00
4:56 AM,41.2,41.2,100,30.25,10.0,NE,3.5,-,N/A,,Clear,50,2013-05-05 08:56:00
5:16 AM,41.5,41.5,100,30.25,10.0,NNE,3.5,-,N/A,,Scattered Clouds,30,2013-05-05 09:16:00
5:36 AM,42.8,42.8,100,30.25,10.0,NNE,3.5,-,N/A,,Scattered Clouds,30,2013-05-05 09:36:00
5:53 AM,42.8,42.8,100,30.25,10.0,NNE,4.6,-,N/A,,Overcast,30,2013-05-05 09:53:00
5:56 AM,43.0,43.0,100,30.25,10.0,NE,3.5,-,N/A,,Scattered Clouds,40,2013-05-05 09:56:00
6:16 AM,43.3,43.3,100,30.25,7.0,NE,4.6,-,N/A,,Mostly Cloudy,40,2013-05-05 10:16:00
6:36 AM,43.9,43.7,99,30.25,10.0,NE,6.9,-,N/A,,Mostly Cloudy,50,2013-05-05 10:36:00
6:48 AM,44.6,42.8,93,30.26,10.0,NE,8.1,-,N/A,,Mostly Cloudy,50,2013-05-05 10:48:00
6:56 AM,45.0,43.2,93,30.26,10.0,ENE,5.8,-,N/A,,Mostly Cloudy,60,2013-05-05 10:56:00
7:16 AM,45.5,43.2,92,30.26,10.0,ENE,6.9,-,N/A,,Mostly Cloudy,60,2013-05-05 11:16:00
7:36 AM,46.4,43.2,88,30.27,10.0,ENE,9.2,-,N/A,,Mostly Cloudy,60,2013-05-05 11:36:00
7:42 AM,46.6,43.3,88,30.27,10.0,ENE,8.1,-,N/A,,Mostly Cloudy,60,2013-05-05 11:42:00
7:50 AM,46.4,42.8,87,30.27,10.0,ENE,9.2,-,N/A,,Overcast,60,2013-05-05 11:50:00
8:47 AM,48.2,42.8,82,30.28,10.0,East,6.9,-,N/A,,Overcast,80,2013-05-05 12:47:00
9:53 AM,50.0,41.0,71,30.28,10.0,East,10.4,18.4,N/A,,Overcast,80,2013-05-05 13:53:00
10:52 AM,55.4,42.8,63,30.28,10.0,East,12.7,17.3,N/A,,Overcast,100,2013-05-05 14:52:00
11:46 AM,55.4,42.8,63,30.28,10.0,ENE,11.5,17.3,N/A,,Overcast,70,2013-05-05 15:46:00
12:48 PM,59.0,44.6,59,30.26,10.0,East,11.5,25.3,N/A,,Mostly Cloudy,80,2013-05-05 16:48:00
1:50 PM,59.0,46.4,63,30.25,10.0,East,10.4,-,N/A,,Mostly Cloudy,90,2013-05-05 17:50:00
2:50 PM,62.6,46.4,55,30.24,10.0,East,9.2,-,N/A,,Mostly Cloudy,90,2013-05-05 18:50:00
3:50 PM,62.6,48.2,59,30.23,10.0,East,11.5,-,N/A,,Scattered Clouds,90,2013-05-05 19:50:00
4:50 PM,62.6,48.2,59,30.21,10.0,East,9.2,-,N/A,,Mostly Cloudy,90,2013-05-05 20:50:00
5:50 PM,60.8,48.2,63,30.21,10.0,East,13.8,18.4,N/A,,Scattered Clouds,80,2013-05-05 21:50:00
6:53 PM,59.0,48.2,67,30.22,10.0,East,9.2,-,N/A,,Partly Cloudy,80,2013-05-05 22:53:00
7:53 PM,55.4,48.2,77,30.23,10.0,ESE,5.8,-,N/A,,Scattered Clouds,120,2013-05-05 23:53:00
8:55 PM,50.0,46.4,87,30.24,10.0,Calm,Calm,-,N/A,,Clear,0,2013-05-06 00:55:00
10:58 PM,47.3,45.9,95,30.23,10.0,East,5.8,-,N/A,,Clear,90,2013-05-06 02:58:00
11:18 PM,46.9,45.9,96,30.23,10.0,East,4.6,-,N/A,,Clear,100,2013-05-06 03:18:00
11:38 PM,46.8,46.0,97,30.23,10.0,ESE,5.8,-,N/A,,Clear,120,2013-05-06 03:38:00
11:58 PM,46.6,46.4,99,30.23,10.0,ESE,4.6,-,N/A,,Clear,110,2013-05-06 03:58:00